Regional Weather Roundup
Issued by NWS Green Bay, WI

Home | Current Version | Previous Version | Text Only | Print | Product List | Glossary On
Versions: 1 2 3 4 5 6 7 8 9 10 11 12 13 14 15 16 17 18 19 20 21 22 23 24 25 26 27 28 29 30 31 32 33 34 35 36 37 38 39 40 41 42 43 44 45 46 47 48 49 50
000
ASUS43 KGRB 260611
RWRGRB

NORTH-CENTRAL AND NORTHEAST WISCONSIN REGIONAL WEATHER ROUNDUP
NATIONAL WEATHER SERVICE GREEN BAY WI
100 AM CDT WED APR 26 2017

WIZ005-009-010>012-018-019-260700-
NORTH CENTRAL WISCONSIN

CITY           SKY/WX    TMP DP  RH WIND       PRES   REMARKS
IRONWOOD       LGT RAIN  33  31  92 NE8       29.71F
MANITOWISH WTR DRIZZLE   34  34 100 NE7       29.65F
ARBOR VITAE    RAIN      39  38  94 N7        29.62F
EAGLE RIVER    LGT RAIN  40  40 100 NE9       29.63F
LAND O LAKES   RAIN      37  37  98 N7        29.67F
RHINELANDER    LGT RAIN  48  48 100 NE8       29.60F
PHILLIPS       LGT RAIN  39  39 100 NE13      29.60F
ANTIGO         LGT RAIN  53  51  94 E12       29.57F
TOMAHAWK       RAIN      48  47  95 N8        29.59F
MERRILL        LGT RAIN  54  54 100 NE9       29.56F
$$

WIZ013-073-260700-
NORTHEAST WISCONSIN

CITY           SKY/WX    TMP DP  RH WIND       PRES   REMARKS
IRON MOUNTAIN  CLOUDY    51  47  86 CALM      29.63S
MARINETTE      CLOUDY    47  42  83 NE10      29.61F
OCONTO         CLOUDY    51  45  79 E6        29.58F
$$

WIZ017-030-035>037-045-260700-
CENTRAL WISCONSIN

CITY           SKY/WX    TMP DP  RH WIND       PRES   REMARKS
MEDFORD        LGT RAIN  53  51  95 NE10      29.53F
WAUSAU         LGT RAIN  56  53  90 NE9       29.51F
MOSINEE        RAIN      55  52  88 E7        29.53S
MARSHFIELD     LGT RAIN  56  51  84 NE8       29.50F
WISC RAPIDS    CLOUDY    61  53  75 CALM      29.49F
STEVENS POINT  LGT RAIN  60  52  75 E8G17     29.51S
WAUPACA        CLOUDY    63  54  72 E12G17    29.51F
SHAWANO        DRIZZLE   56  51  85 NE10      29.58R
CLINTONVILLE   LGT RAIN  57  54  88 E7        29.55S
WAUTOMA        CLOUDY    64  53  67 E7        29.49F
$$

WIZ038-039-048-051-260700-
FOX VALLEY

CITY           SKY/WX    TMP DP  RH WIND       PRES   REMARKS
NWS GREEN BAY  LGT RAIN  56  53  90 E12       29.56F
APPLETON       LGT RAIN  59  50  72 SE9       29.52F
OSHKOSH        CLOUDY    62  52  69 SE10      29.52F
FOND DU LAC    CLOUDY    62  50  64 SE16      29.51F
$$

WIZ022-050-052-260700-
EAST CENTRAL WISCONSIN

CITY           SKY/WX    TMP DP  RH WIND       PRES   REMARKS
EPHRAIM        MOCLDY    46  43  91 E7        29.61F
WASHINGTON ISL CLOUDY    43  40  90 NE6       29.63F
STURGEON BAY   CLOUDY    52  45  77 E10       29.59F
MANITOWOC      CLOUDY    54  48  80 NE3       29.58F
SHEBOYGAN      CLOUDY    55  50  83 NE6       29.56F
$$

LMZ563-521-522-541>543-260700-
LAKESHORE

STATION/POSITION TIME  TEMP    WIND        PRES    VSBY  WAVE
                       AIR SEA DIR/SP/G                  HT/PER
                 (UTC) (F)     (DEG/KT/KT) (MB)    (MI)  (FT/S)
SHEBOYGAN LKSHOR 0600   49      CALM  /  1 1000.8F
KEWAUNEE LKSHORE 0548           30/  5/  8 1001.6F
NORTHPORT PIER   0540   44     110/  2/  5 1003.7F
N MID LAKE BUOY  0550   41 37   90/ 10/ 10 1004.9F         2/ 4
CHAMBERS ISLAND  0540   40      10/ 10/ 12 1003.4F
MENOMINEE LKSHOR 0548           30/ 18/ 21 1001.9F
$$




USA.gov is the U.S. government's official web portal to all federal, state and local government web resources and services.